Wind_Speed
14 15 16 17 18 19 18 18 19 12 12 13 14 14 18 17 17 18 21 22 21 20 22 23 24 25 24 28 30 31 32 31 32 31 32 31 30 27
12 15 14 13 13 14 13 13 13 14 9 8 12 15 16 16 14 15 16 19 23 21 24 26 24 24 24 23 24 25 27 26 25 25 24 27 31 29
12 14 13 14 14 13 11 11 11 13 11 12 11 12 14 14 16 18 19 19 19 23 23 23 23 24 25 27 25 23 24 26 24 27 27 28 28 27
13 13 12 13 15 15 13 11 11 11 11 13 13 14 14 15 19 18 18 19 18 17 18 17 19 21 21 22 23 23 24 24 25 25 25 25 26 26
12 11 11 11 12 10 10 10 9 10 11 12 12 13 15 16 16 17 17 16 17 17 17 18 18 19 18 20 21 21 22 24 26 25 24 24 25 26
10 10 10 10 10 10 9 8 9 8 8 8 10 11 12 12 12 13 12 13 13 14 15 14 13 15 17 19 20 21 22 24 24 23 23 22 21 23
7 6 6 6 7 7 7 7 6 6 5 6 6 6 7 8 9 10 10 11 10 10 12 12 16 17 16 17 17 19 21 22 21 20 21 23 24 27
8 6 6 6 6 5 5 4 3 3 3 3 3 4 4 5 6 8 10 11 9 12 18 16 13 14 14 17 19 22 24 24 20 20 21 23 22 26
9 8 7 6 6 5 4 3 3 3 3 3 3 4 5 5 6 8 9 11 13 15 17 17 17 15 18 20 21 22 21 17 16 15 21 23 27 28
10 9 8 7 6 5 4 3 3 3 4 4 5 5 6 7 8 10 11 12 13 13 13 17 17 21 23 22 17 16 15 15 16 24 29 26 28 30
11 11 10 9 6 6 6 5 6 6 6 6 7 7 8 8 9 10 11 12 12 10 15 16 20 26 25 17 13 12 21 21 21 21 23 24 25 27
13 13 12 12 8 8 8 7 7 9 8 9 9 8 9 9 9 10 11 12 14 10 15 20 22 23 19 14 20 23 24 23 24 26 23 23 22 23
16 15 14 13 12 11 10 10 9 10 10 10 10 11 10 10 11 12 12 13 14 14 14 20 23 22 17 24 29 27 26 29 26 25 23 19 22 24
18 17 16 14 14 13 12 12 12 11 11 11 11 12 12 12 12 12 12 12 13 16 17 17 21 21 22 28 30 30 28 27 26 21 23 27 25 25
20 19 19 17 16 16 15 14 14 12 12 12 12 13 13 13 14 12 12 12 13 14 15 16 18 19 21 26 31 34 32 30 21 25 27 29 29 29
24 23 21 19 19 18 18 15 14 14 13 13 14 16 15 15 14 12 11 12 13 13 14 14 15 18 21 23 28 31 26 21 28 28 30 30 30 27
23 24 23 22 22 20 18 16 15 15 15 15 16 17 16 15 13 12 11 12 12 13 14 14 16 18 20 21 24 23 19 23 23 29 30 32 30 27
26 27 27 26 24 21 18 17 17 17 16 16 17 17 16 14 12 12 11 11 12 13 15 15 18 21 22 20 13 22 20 24 30 29 28 30 32 27
30 30 30 29 26 22 19 18 18 17 17 16 17 17 16 13 11 11 11 11 12 14 14 15 16 18 22 24 29 16 19 26 26 28 28 27 30 26
33 34 33 29 28 24 21 20 20 19 18 17 18 16 15 14 13 11 11 12 13 14 15 15 14 14 19 24 28 27 17 23 25 28 29 27 26 25
35 35 35 29 27 24 22 22 20 20 19 19 18 17 14 14 13 12 13 14 14 15 16 16 15 15 17 20 25 28 24 20 18 23 25 27 29 32
36 36 35 29 26 23 22 23 19 20 20 19 18 16 13 13 13 13 14 15 16 17 17 17 16 16 16 18 23 26 28 26 21 17 17 17 22 26
36 36 32 30 27 25 24 22 23 21 20 19 17 14 13 13 13 13 14 15 16 17 17 18 17 15 15 17 19 23 24 26 24 24 20 18 20 20
Wind_Direction
306 310 301 295 294 285 275 265 264 269 265 249 231 236 245 254 256 259 264 268 276 283 286 286 285 281 279 287 287 283 284 280 281 280 277 274 272 279
317 316 317 324 308 299 282 267 256 258 250 233 242 262 259 254 258 267 280 286 286 290 295 299 289 283 287 291 289 289 287 282 280 281 284 283 280 284
307 304 306 307 313 313 305 292 284 265 254 250 248 249 242 261 275 281 284 287 285 294 294 290 285 283 286 286 287 284 282 284 288 285 282 282 280 282
297 296 295 295 288 293 294 290 286 277 265 265 262 259 257 267 275 283 284 291 295 294 282 286 289 293 295 294 293 291 294 296 293 289 291 290 289 287
287 284 290 293 306 292 288 285 280 275 265 257 255 255 266 270 277 287 288 286 290 293 297 301 302 299 296 292 296 299 300 296 295 297 299 294 291 289
294 283 284 288 284 277 283 284 277 266 258 250 248 254 258 266 281 287 295 306 310 310 308 304 301 293 294 297 300 298 296 296 298 298 292 288 286 283
304 299 299 295 290 293 295 294 282 280 276 269 264 268 274 288 297 302 306 307 307 305 297 310 314 315 312 309 309 305 301 301 300 293 283 284 285 287
283 288 292 290 287 288 290 298 304 297 279 275 272 280 292 295 297 306 312 320 332 318 317 327 321 317 317 319 317 310 307 305 299 288 294 297 301 297
269 275 276 274 273 264 258 262 261 265 268 266 255 265 279 292 299 305 314 319 319 322 319 324 321 321 322 320 312 308 306 301 289 303 305 299 297 296
267 266 264 262 256 259 269 268 257 245 242 250 263 278 289 304 311 315 314 315 320 321 320 313 319 320 326 326 317 317 313 308 290 303 306 300 298 298
259 260 261 262 265 262 260 259 270 272 271 270 274 278 283 288 292 302 311 319 328 318 306 314 327 326 331 334 328 325 318 315 306 304 301 298 299 297
257 256 255 258 255 248 255 256 256 269 275 279 279 277 282 290 300 309 317 324 328 339 318 321 324 333 329 323 320 320 323 324 324 320 315 308 304 301
256 256 256 256 258 251 251 258 264 274 271 276 283 290 293 296 304 312 316 318 318 317 315 317 318 323 318 312 325 327 328 326 322 321 316 316 315 310
256 255 256 253 256 258 255 262 268 269 268 272 275 278 282 289 296 301 307 312 315 316 317 311 308 316 316 315 315 322 326 326 325 323 325 323 320 318
250 250 254 255 253 255 259 267 270 271 265 265 268 274 283 290 291 295 299 303 307 307 308 308 309 310 308 309 311 317 321 325 324 325 325 324 323 324
249 248 248 248 250 252 254 259 267 271 269 269 271 277 283 284 283 283 289 296 301 312 317 311 306 305 310 313 311 313 321 314 323 321 322 321 322 325
251 249 247 244 244 248 252 259 266 272 276 273 271 275 282 284 279 281 287 292 305 315 318 317 314 314 314 316 315 319 324 319 315 318 320 321 323 327
248 246 247 247 247 248 249 256 262 269 273 277 278 278 279 274 273 276 282 295 306 314 321 325 320 321 324 327 335 322 321 319 323 321 323 323 323 331
243 247 247 247 250 250 252 256 262 269 273 277 280 280 274 267 266 273 283 291 302 312 320 327 323 326 328 320 330 339 312 320 321 323 324 322 321 334
239 244 247 249 252 252 253 256 259 264 268 273 278 276 271 266 264 268 279 287 296 305 316 327 324 318 314 316 317 325 330 328 321 319 323 324 327 337
240 242 247 248 254 255 252 253 255 261 263 267 274 269 264 259 263 273 282 286 292 297 306 316 322 314 314 318 320 325 329 331 324 315 319 320 328 331
241 242 244 244 246 253 253 250 253 260 263 268 271 265 260 259 264 271 281 289 293 295 302 308 319 320 322 324 320 323 326 331 333 323 314 317 319 311
243 244 243 244 239 242 244 241 248 251 260 264 270 266 261 261 268 278 285 290 292 296 302 306 316 319 322 326 325 322 325 327 332 330 332 342 322 319
Height
1443 1441 1439 1437 1436 1435 1435 1435 1436 1434 1435 1435 1435 1436 1437 1438 1438 1438 1439 1439 1440 1440 1441 1440 1441 1441 1441 1441 1441 1440 1441 1438 1439 1437 1438 1438 1437 1436
1441 1439 1437 1435 1434 1433 1432 1432 1433 1433 1433 1433 1433 1433 1434 1434 1435 1435 1436 1436 1436 1436 1435 1435 1436 1435 1434 1433 1434 1432 1432 1432 1431 1431 1430 1429 1430 1429
1439 1438 1436 1435 1434 1433 1432 1431 1431 1431 1431 1431 1431 1431 1431 1432 1432 1432 1432 1431 1432 1432 1431 1430 1430 1429 1429 1429 1426 1425 1425 1425 1423 1423 1421 1422 1422 1421
1437 1435 1433 1432 1432 1431 1430 1430 1429 1429 1429 1429 1429 1429 1428 1428 1429 1429 1428 1428 1427 1427 1427 1426 1425 1425 1423 1423 1421 1422 1420 1419 1418 1417 1416 1415 1415 1413
1434 1433 1432 1431 1430 1428 1428 1427 1426 1426 1425 1425 1425 1425 1426 1426 1425 1424 1424 1423 1423 1423 1423 1421 1420 1420 1419 1419 1418 1415 1414 1413 1412 1410 1408 1408 1408 1406
1431 1430 1429 1429 1428 1427 1426 1426 1425 1424 1423 1423 1423 1423 1423 1423 1422 1422 1422 1421 1421 1419 1418 1417 1418 1417 1416 1414 1411 1411 1407 1407 1405 1403 1404 1402 1400 1401
1429 1428 1427 1427 1426 1426 1426 1425 1424 1423 1423 1422 1422 1422 1422 1422 1421 1421 1420 1420 1418 1417 1416 1416 1413 1411 1409 1408 1407 1405 1403 1403 1401 1399 1398 1397 1395 1394
1428 1427 1426 1425 1425 1424 1424 1423 1423 1423 1422 1422 1421 1421 1421 1421 1420 1419 1418 1417 1417 1416 1413 1413 1411 1409 1407 1405 1403 1401 1398 1396 1395 1393 1392 1391 1390 1388
1426 1425 1424 1424 1423 1423 1422 1422 1421 1422 1422 1422 1421 1421 1420 1420 1419 1419 1418 1417 1415 1414 1411 1408 1407 1406 1405 1403 1400 1396 1394 1392 1390 1390 1388 1386 1383 1381
1424 1423 1423 1422 1422 1422 1422 1421 1420 1420 1420 1420 1420 1420 1419 1418 1418 1417 1416 1415 1415 1412 1410 1406 1404 1403 1401 1398 1395 1393 1391 1390 1388 1385 1383 1380 1378 1374
1421 1420 1420 1419 1421 1421 1420 1420 1420 1420 1420 1419 1418 1418 1418 1418 1417 1416 1414 1413 1411 1411 1408 1405 1401 1397 1395 1393 1391 1390 1389 1387 1384 1381 1378 1374 1371 1367
1418 1418 1418 1418 1418 1417 1418 1418 1417 1417 1417 1418 1417 1416 1415 1414 1414 1413 1412 1410 1408 1406 1405 1403 1399 1395 1391 1389 1389 1387 1384 1381 1378 1375 1372 1368 1365 1360
1414 1415 1415 1416 1416 1416 1415 1415 1415 1415 1415 1414 1414 1413 1412 1411 1410 1410 1409 1408 1406 1405 1404 1401 1397 1395 1393 1386 1383 1381 1378 1376 1373 1369 1366 1363 1361 1357
1411 1411 1411 1411 1412 1413 1413 1412 1412 1412 1411 1411 1411 1410 1410 1409 1408 1407 1406 1405 1403 1402 1401 1399 1396 1393 1388 1384 1379 1377 1374 1371 1368 1364 1361 1357 1354 1351
1404 1405 1406 1407 1407 1408 1409 1409 1408 1408 1407 1407 1407 1406 1406 1405 1404 1404 1403 1403 1401 1400 1398 1396 1393 1390 1387 1382 1377 1373 1369 1365 1363 1360 1356 1352 1348 1344
1400 1401 1400 1401 1403 1403 1404 1404 1405 1404 1404 1403 1403 1402 1402 1402 1401 1400 1399 1399 1398 1397 1395 1392 1389 1386 1383 1379 1374 1369 1368 1364 1359 1356 1351 1347 1343 1340
1394 1395 1396 1395 1395 1397 1398 1400 1400 1400 1399 1399 1398 1398 1398 1397 1397 1396 1395 1394 1393 1391 1391 1388 1385 1382 1378 1375 1370 1367 1364 1361 1358 1353 1348 1342 1338 1334
1386 1387 1388 1390 1390 1391 1392 1394 1396 1396 1396 1396 1395 1394 1394 1393 1393 1393 1392 1392 1390 1388 1387 1384 1381 1377 1373 1370 1368 1363 1361 1357 1354 1349 1345 1339 1332 1330
1375 1378 1381 1383 1385 1386 1387 1388 1389 1391 1391 1391 1391 1390 1390 1389 1388 1388 1388 1387 1387 1385 1382 1380 1378 1374 1370 1365 1362 1362 1358 1355 1349 1344 1341 1337 1330 1324
1367 1369 1371 1376 1379 1381 1381 1382 1385 1384 1386 1385 1386 1384 1386 1387 1385 1384 1384 1384 1383 1381 1379 1377 1374 1372 1369 1365 1359 1356 1356 1350 1347 1341 1337 1332 1328 1322
1359 1361 1364 1369 1373 1375 1376 1377 1378 1380 1380 1380 1380 1380 1378 1381 1382 1381 1381 1380 1379 1378 1374 1373 1372 1369 1366 1362 1357 1352 1350 1349 1345 1340 1335 1330 1323 1316
1351 1353 1357 1361 1364 1369 1371 1373 1374 1375 1375 1375 1376 1377 1375 1377 1377 1377 1377 1377 1377 1375 1372 1370 1368 1365 1362 1359 1355 1350 1346 1343 1340 1337 1334 1331 1326 1318
1343 1346 1349 1353 1356 1360 1364 1366 1368 1369 1370 1372 1372 1372 1373 1373 1374 1374 1373 1373 1372 1371 1369 1367 1365 1363 1359 1356 1354 1349 1345 1342 1337 1333 1330 1328 1323 1318